TVS6SH EBBR-LKPR

Flight info

Callsign TVS6SH
Flight time 1h 10m
Altitude 35000
Route SOPOK Y863 OGLOR DCT EMGOD DCT BOMBI DCT BOREP DCT TONSU Z35 ODOMO DCT LOMKI
Aircraft B738/M-SDFGHIJ1LORVWXYZ/LB1

Departure

Time 2026-05-05 12:42
Airport Brussels Airport (EBBR)

Arrival

Time 2026-05-05 13:53
Airport Václav Havel Airport Prague (LKPR)
Time Latitude Longitude Altitude Speed Heading
2026-05-05 12:10 50.90376 4.48938 118 ft 0 kts 335°
2026-05-05 12:32 50.90364 4.48947 117 ft 3 kts 335°
2026-05-05 12:32 50.90346 4.48960 117 ft 3 kts 336°
2026-05-05 12:32 50.90327 4.48972 118 ft 3 kts 341°
2026-05-05 12:32 50.90312 4.48978 119 ft 1 kts
2026-05-05 12:33 50.90303 4.48974 119 ft 1 kts 47°
2026-05-05 12:33 50.90295 4.48953 119 ft 1 kts 66°
2026-05-05 12:33 50.90301 4.48974 119 ft 2 kts 66°
2026-05-05 12:33 50.90305 4.48989 121 ft 1 kts 65°
2026-05-05 12:34 50.90308 4.48999 122 ft 1 kts 65°
2026-05-05 12:34 50.90309 4.49003 120 ft 0 kts 65°
2026-05-05 12:35 50.90311 4.49008 120 ft 2 kts 64°
2026-05-05 12:36 50.90326 4.49059 119 ft 7 kts 65°
2026-05-05 12:36 50.90348 4.49136 120 ft 8 kts 65°
2026-05-05 12:36 50.90372 4.49220 122 ft 9 kts 65°
2026-05-05 12:36 50.90398 4.49311 120 ft 10 kts 65°
2026-05-05 12:37 50.90427 4.49413 120 ft 11 kts 65°
2026-05-05 12:37 50.90452 4.49522 123 ft 11 kts 95°
2026-05-05 12:37 50.90406 4.49609 122 ft 11 kts 141°
2026-05-05 12:37 50.90340 4.49655 124 ft 10 kts 162°
2026-05-05 12:38 50.90272 4.49685 124 ft 10 kts 166°
2026-05-05 12:38 50.90205 4.49708 126 ft 10 kts 169°
2026-05-05 12:38 50.90140 4.49708 130 ft 8 kts 210°
2026-05-05 12:38 50.90103 4.49641 129 ft 8 kts 241°
2026-05-05 12:39 50.90079 4.49563 128 ft 8 kts 244°
2026-05-05 12:39 50.90051 4.49476 128 ft 10 kts 242°
2026-05-05 12:39 50.89992 4.49405 128 ft 12 kts 196°
2026-05-05 12:39 50.89914 4.49373 135 ft 11 kts 195°
2026-05-05 12:40 50.89839 4.49342 139 ft 11 kts 194°
2026-05-05 12:40 50.89765 4.49312 144 ft 11 kts 194°
2026-05-05 12:40 50.89687 4.49278 149 ft 12 kts 195°
2026-05-05 12:40 50.89600 4.49246 154 ft 13 kts 181°
2026-05-05 12:41 50.89538 4.49333 160 ft 12 kts 126°
2026-05-05 12:41 50.89509 4.49451 162 ft 12 kts 69°
2026-05-05 12:41 50.89545 4.49490 159 ft 1 kts 14°
2026-05-05 12:41 50.89568 4.49499 158 ft 8 kts 13°
2026-05-05 12:42 50.89830 4.49603 142 ft 77 kts 14°
2026-05-05 12:42 50.90592 4.49913 124 ft 144 kts 14°
2026-05-05 12:42 50.91653 4.50338 633 ft 160 kts 14°
2026-05-05 12:42 50.92686 4.50854 1564 ft 160 kts 30°
2026-05-05 12:43 50.93592 4.51888 2236 ft 170 kts 48°
2026-05-05 12:43 50.93999 4.53775 2563 ft 197 kts 95°
2026-05-05 12:43 50.93368 4.55777 2883 ft 222 kts 135°
2026-05-05 12:43 50.92022 4.57127 3367 ft 236 kts 145°
2026-05-05 12:44 50.90543 4.58535 3677 ft 261 kts 156°
2026-05-05 12:44 50.88727 4.59156 4385 ft 269 kts 171°
2026-05-05 12:44 50.86907 4.59543 5291 ft 270 kts 169°
2026-05-05 12:44 50.85031 4.60087 6101 ft 272 kts 166°
2026-05-05 12:45 50.83172 4.60724 6943 ft 275 kts 166°
2026-05-05 12:45 50.81265 4.61359 7597 ft 282 kts 166°
2026-05-05 12:45 50.79358 4.61987 8408 ft 285 kts 166°
2026-05-05 12:45 50.77417 4.62629 9296 ft 283 kts 167°
2026-05-05 12:46 50.75484 4.63242 10071 ft 287 kts 166°
2026-05-05 12:46 50.73481 4.63934 10422 ft 305 kts 163°
2026-05-05 12:46 50.71367 4.64991 10600 ft 327 kts 157°
2026-05-05 12:46 50.69415 4.66882 11067 ft 335 kts 133°
2026-05-05 12:47 50.68223 4.70025 11759 ft 336 kts 105°
2026-05-05 12:47 50.67941 4.73609 12660 ft 333 kts 91°
2026-05-05 12:47 50.67816 4.77280 13406 ft 338 kts 95°
2026-05-05 12:47 50.67518 4.80988 14123 ft 342 kts 99°
2026-05-05 12:48 50.67051 4.84717 14844 ft 348 kts 103°
2026-05-05 12:48 50.66461 4.88459 15509 ft 355 kts 105°
2026-05-05 12:48 50.65787 4.92236 16137 ft 361 kts 107°
2026-05-05 12:48 50.65066 4.96030 16949 ft 362 kts 108°
2026-05-05 12:49 50.64317 4.99857 17542 ft 369 kts 108°
2026-05-05 12:49 50.63554 5.03703 18209 ft 373 kts 108°
2026-05-05 12:49 50.62776 5.07611 18841 ft 375 kts 109°
2026-05-05 12:49 50.61988 5.11560 19408 ft 380 kts 109°
2026-05-05 12:50 50.61190 5.15562 19983 ft 384 kts 109°
2026-05-05 12:50 50.60385 5.19595 20576 ft 387 kts 109°
2026-05-05 12:50 50.59572 5.23651 21155 ft 390 kts 109°
2026-05-05 12:50 50.58646 5.27638 21684 ft 392 kts 120°
2026-05-05 12:51 50.57007 5.31055 22275 ft 391 kts 136°
2026-05-05 12:51 50.55041 5.34027 22896 ft 393 kts 139°
2026-05-05 12:51 50.53017 5.36947 23454 ft 396 kts 139°
2026-05-05 12:51 50.50970 5.39876 23913 ft 399 kts 139°
2026-05-05 12:52 50.49613 5.41828 24219 ft 400 kts 139°
2026-05-05 12:52 50.47556 5.44808 24701 ft 402 kts 139°
2026-05-05 12:52 50.44828 5.48792 25304 ft 405 kts 139°
2026-05-05 12:52 50.43434 5.50838 25606 ft 407 kts 139°
2026-05-05 12:53 50.41364 5.53876 26031 ft 410 kts 139°
2026-05-05 12:53 50.39277 5.56940 26469 ft 412 kts 139°
2026-05-05 12:53 50.37174 5.60023 26881 ft 415 kts 139°
2026-05-05 12:53 50.35061 5.63117 27318 ft 417 kts 139°
2026-05-05 12:54 50.30839 5.69289 28377 ft 415 kts 139°
2026-05-05 12:54 50.28729 5.72365 28979 ft 413 kts 139°
2026-05-05 12:54 50.26791 5.75696 29500 ft 415 kts 129°
2026-05-05 12:55 50.25268 5.79496 29981 ft 418 kts 121°
2026-05-05 12:55 50.24123 5.83695 30423 ft 422 kts 110°
2026-05-05 12:55 50.23352 5.88122 30906 ft 421 kts 108°
2026-05-05 12:55 50.22643 5.92565 31345 ft 420 kts 108°
2026-05-05 12:56 50.21934 5.97010 31761 ft 420 kts 109°
2026-05-05 12:56 50.20475 6.05826 31840 ft 419 kts 110°
2026-05-05 12:57 50.18979 6.14601 31852 ft 417 kts 109°
2026-05-05 12:57 50.18372 6.23654 31830 ft 430 kts 90°
2026-05-05 12:58 50.18981 6.32980 31834 ft 432 kts 88°
2026-05-05 12:58 50.19625 6.42264 31818 ft 433 kts 89°
2026-05-05 12:59 50.20213 6.51637 31819 ft 432 kts 89°
2026-05-05 12:59 50.20773 6.60930 31833 ft 432 kts 89°
2026-05-05 13:00 50.20903 6.74945 31828 ft 429 kts 97°
2026-05-05 13:01 50.20454 6.93479 31826 ft 426 kts 97°
2026-05-05 13:01 50.20270 7.02740 31831 ft 427 kts 97°
2026-05-05 13:02 50.20085 7.12014 31828 ft 427 kts 97°
2026-05-05 13:02 50.19892 7.21253 31828 ft 428 kts 97°
2026-05-05 13:03 50.19691 7.30538 31831 ft 429 kts 98°
2026-05-05 13:03 50.19136 7.39782 31835 ft 424 kts 104°
2026-05-05 13:04 50.18273 7.48909 31830 ft 424 kts 104°
2026-05-05 13:04 50.17407 7.57971 31832 ft 424 kts 104°
2026-05-05 13:05 50.16560 7.67091 31832 ft 423 kts 104°
2026-05-05 13:05 50.15727 7.76134 31832 ft 423 kts 104°
2026-05-05 13:06 50.14883 7.85255 31821 ft 423 kts 104°
2026-05-05 13:06 50.14038 7.94303 31835 ft 423 kts 104°
2026-05-05 13:07 50.13183 8.03378 31842 ft 423 kts 104°
2026-05-05 13:07 50.12317 8.12484 31846 ft 423 kts 104°
2026-05-05 13:08 50.11453 8.21496 31861 ft 424 kts 104°
2026-05-05 13:08 50.10572 8.30602 31850 ft 425 kts 104°
2026-05-05 13:09 50.09684 8.39715 31849 ft 426 kts 104°
2026-05-05 13:09 50.08782 8.48887 31831 ft 427 kts 104°
2026-05-05 13:10 50.07881 8.57982 31825 ft 428 kts 104°
2026-05-05 13:10 50.06964 8.67160 31827 ft 428 kts 104°
2026-05-05 13:11 50.06041 8.76338 31827 ft 429 kts 104°
2026-05-05 13:11 50.05320 8.85558 31836 ft 433 kts 99°
2026-05-05 13:12 50.04946 8.94951 31819 ft 434 kts 98°
2026-05-05 13:12 50.04597 9.04308 31825 ft 434 kts 99°
2026-05-05 13:13 50.04206 9.13682 31819 ft 434 kts 99°
2026-05-05 13:13 50.03790 9.23015 31820 ft 434 kts 99°
2026-05-05 13:14 50.03358 9.32400 31831 ft 434 kts 99°
2026-05-05 13:14 50.02922 9.41724 31821 ft 434 kts 99°
2026-05-05 13:15 50.02476 9.51097 31818 ft 433 kts 99°
2026-05-05 13:15 50.02025 9.60436 31822 ft 432 kts 99°
2026-05-05 13:16 50.01568 9.69720 31818 ft 432 kts 99°
2026-05-05 13:16 50.01101 9.79068 31812 ft 432 kts 99°
2026-05-05 13:17 50.00626 9.88416 31813 ft 433 kts 99°
2026-05-05 13:17 50.00147 9.97713 31817 ft 433 kts 99°
2026-05-05 13:18 49.99657 10.07069 31813 ft 434 kts 99°
2026-05-05 13:18 49.99161 10.16394 31812 ft 435 kts 99°
2026-05-05 13:19 49.98654 10.25777 31810 ft 435 kts 99°
2026-05-05 13:19 49.98139 10.35181 31808 ft 436 kts 99°
2026-05-05 13:20 49.97620 10.44514 31805 ft 436 kts 99°
2026-05-05 13:20 49.97089 10.53939 31804 ft 436 kts 99°
2026-05-05 13:21 49.96575 10.63259 31798 ft 437 kts 97°
2026-05-05 13:21 49.96576 10.72748 31806 ft 440 kts 93°
2026-05-05 13:22 49.96712 10.82214 31795 ft 440 kts 93°
2026-05-05 13:22 49.96808 10.91726 31798 ft 440 kts 94°
2026-05-05 13:23 49.96870 11.01252 31794 ft 440 kts 94°
2026-05-05 13:23 49.96919 11.10736 31796 ft 441 kts 94°
2026-05-05 13:24 49.96963 11.20281 31791 ft 441 kts 94°
2026-05-05 13:24 49.96825 11.29792 31800 ft 439 kts 97°
2026-05-05 13:25 49.96480 11.39229 31790 ft 439 kts 97°
2026-05-05 13:25 49.96151 11.48677 31781 ft 440 kts 97°
2026-05-05 13:26 49.95841 11.58156 31783 ft 440 kts 97°
2026-05-05 13:26 49.95520 11.67653 31770 ft 440 kts 97°
2026-05-05 13:27 49.95192 11.77087 31583 ft 434 kts 97°
2026-05-05 13:27 49.95028 11.81702 31307 ft 429 kts 97°
2026-05-05 13:27 49.94865 11.86303 31059 ft 426 kts 97°
2026-05-05 13:28 49.94698 11.90913 30803 ft 425 kts 97°
2026-05-05 13:28 49.94541 11.95496 30559 ft 424 kts 96°
2026-05-05 13:28 49.94435 12.00078 30310 ft 424 kts 95°
2026-05-05 13:28 49.94352 12.04595 30069 ft 423 kts 95°
2026-05-05 13:29 49.94271 12.09156 29819 ft 422 kts 95°
2026-05-05 13:29 49.94185 12.13690 29501 ft 416 kts 95°
2026-05-05 13:29 49.94095 12.18138 29143 ft 408 kts 95°
2026-05-05 13:29 49.94000 12.22532 28729 ft 405 kts 95°
2026-05-05 13:30 49.93903 12.26879 28335 ft 401 kts 95°
2026-05-05 13:30 49.93804 12.31191 27922 ft 398 kts 95°
2026-05-05 13:30 49.93705 12.35475 27515 ft 396 kts 95°
2026-05-05 13:30 49.93605 12.39733 27122 ft 393 kts 95°
2026-05-05 13:31 49.93506 12.43962 26725 ft 391 kts 95°
2026-05-05 13:31 49.93406 12.48168 26330 ft 388 kts 95°
2026-05-05 13:31 49.93305 12.52345 25940 ft 386 kts 95°
2026-05-05 13:31 49.93205 12.56444 25561 ft 384 kts 95°
2026-05-05 13:32 49.93103 12.60581 25173 ft 382 kts 95°
2026-05-05 13:32 49.92999 12.64695 24786 ft 380 kts 95°
2026-05-05 13:32 49.92894 12.68792 24408 ft 378 kts 95°
2026-05-05 13:32 49.92789 12.72860 24025 ft 377 kts 95°
2026-05-05 13:33 49.92683 12.76921 23637 ft 376 kts 95°
2026-05-05 13:33 49.92576 12.80925 23235 ft 374 kts 95°
2026-05-05 13:33 49.92467 12.84969 22789 ft 373 kts 95°
2026-05-05 13:33 49.92358 12.88990 22379 ft 370 kts 95°
2026-05-05 13:34 49.92250 12.92931 21985 ft 368 kts 95°
2026-05-05 13:34 49.92139 12.96888 21611 ft 365 kts 95°
2026-05-05 13:34 49.92028 13.00825 21227 ft 363 kts 95°
2026-05-05 13:34 49.91918 13.04684 20849 ft 360 kts 95°
2026-05-05 13:35 49.91805 13.08566 20482 ft 358 kts 95°
2026-05-05 13:35 49.91692 13.12424 20110 ft 356 kts 95°
2026-05-05 13:35 49.91578 13.16267 19743 ft 355 kts 95°
2026-05-05 13:35 49.91465 13.20055 19382 ft 353 kts 95°
2026-05-05 13:36 49.91350 13.23849 19024 ft 351 kts 95°
2026-05-05 13:36 49.91234 13.27636 18657 ft 350 kts 95°
2026-05-05 13:36 49.91117 13.31400 18295 ft 348 kts 95°
2026-05-05 13:36 49.91000 13.35157 17911 ft 347 kts 95°
2026-05-05 13:37 49.90882 13.38881 17509 ft 345 kts 95°
2026-05-05 13:37 49.90765 13.42550 17121 ft 343 kts 95°
2026-05-05 13:37 49.90646 13.46246 16754 ft 341 kts 95°
2026-05-05 13:37 49.90527 13.49906 16390 ft 339 kts 95°
2026-05-05 13:38 49.90408 13.53544 16041 ft 336 kts 95°
2026-05-05 13:38 49.90328 13.55945 15804 ft 335 kts 95°
2026-05-05 13:38 49.90208 13.59547 15448 ft 334 kts 95°
2026-05-05 13:38 49.90087 13.63132 15095 ft 332 kts 95°
2026-05-05 13:39 49.89965 13.66712 14756 ft 332 kts 95°
2026-05-05 13:39 49.89843 13.70295 14396 ft 331 kts 95°
2026-05-05 13:39 49.89720 13.73849 14057 ft 330 kts 95°
2026-05-05 13:39 49.89595 13.77412 13699 ft 330 kts 95°
2026-05-05 13:40 49.89489 13.80429 13375 ft 329 kts 95°
2026-05-05 13:40 49.89364 13.83963 12995 ft 327 kts 95°
2026-05-05 13:40 49.89239 13.87433 12649 ft 325 kts 95°
2026-05-05 13:40 49.89113 13.90935 12284 ft 323 kts 95°
2026-05-05 13:41 49.88987 13.94405 11940 ft 321 kts 95°
2026-05-05 13:41 49.88861 13.97852 11599 ft 319 kts 95°
2026-05-05 13:41 49.88734 14.01283 11250 ft 317 kts 95°
2026-05-05 13:41 49.88608 14.04691 10913 ft 316 kts 95°
2026-05-05 13:42 49.88481 14.08056 10578 ft 315 kts 95°
2026-05-05 13:42 49.88352 14.11451 10245 ft 314 kts 95°
2026-05-05 13:42 49.88221 14.14827 10020 ft 309 kts 95°
2026-05-05 13:42 49.88098 14.18113 9882 ft 299 kts 95°
2026-05-05 13:43 49.87977 14.21267 9683 ft 287 kts 96°
2026-05-05 13:43 49.87858 14.24311 9407 ft 280 kts 96°
2026-05-05 13:43 49.87739 14.27314 9135 ft 279 kts 96°
2026-05-05 13:43 49.87619 14.30324 8774 ft 281 kts 95°
2026-05-05 13:44 49.87498 14.33366 8242 ft 287 kts 95°
2026-05-05 13:44 49.87374 14.36452 7837 ft 284 kts 95°
2026-05-05 13:44 49.87250 14.39477 7572 ft 277 kts 95°
2026-05-05 13:44 49.87131 14.42415 7391 ft 269 kts 95°
2026-05-05 13:45 49.87017 14.45272 7290 ft 264 kts 95°
2026-05-05 13:45 49.86901 14.48139 7075 ft 269 kts 95°
2026-05-05 13:45 49.86780 14.51041 6722 ft 277 kts 95°
2026-05-05 13:45 49.86655 14.54051 6286 ft 282 kts 95°
2026-05-05 13:46 49.86853 14.57018 6133 ft 273 kts 70°
2026-05-05 13:46 49.87831 14.59423 6029 ft 259 kts 44°
2026-05-05 13:46 49.89316 14.60847 5937 ft 246 kts 17°
2026-05-05 13:46 49.90957 14.61213 5875 ft 230 kts 354°
2026-05-05 13:47 49.92443 14.60634 5814 ft 212 kts 335°
2026-05-05 13:47 49.93572 14.59353 5644 ft 201 kts 312°
2026-05-05 13:47 49.94530 14.57827 5454 ft 193 kts 313°
2026-05-05 13:47 49.95421 14.56303 5218 ft 187 kts 309°
2026-05-05 13:48 49.96224 14.54750 5062 ft 183 kts 308°
2026-05-05 13:48 49.96987 14.53197 4870 ft 183 kts 307°
2026-05-05 13:48 49.97754 14.51613 4723 ft 182 kts 307°
2026-05-05 13:48 49.98511 14.50048 4655 ft 187 kts 307°
2026-05-05 13:49 49.99283 14.48444 4422 ft 181 kts 307°
2026-05-05 13:49 50.00014 14.46917 4180 ft 171 kts 307°
2026-05-05 13:49 50.00715 14.45460 3964 ft 166 kts 308°
2026-05-05 13:49 50.01401 14.44031 3774 ft 162 kts 307°
2026-05-05 13:50 50.02074 14.42610 3516 ft 163 kts 309°
2026-05-05 13:50 50.02765 14.41197 3276 ft 167 kts 308°
2026-05-05 13:50 50.03446 14.39781 3118 ft 170 kts 308°
2026-05-05 13:50 50.04157 14.38312 2938 ft 168 kts 309°
2026-05-05 13:51 50.04857 14.36862 2644 ft 163 kts 308°
2026-05-05 13:51 50.05516 14.35470 2521 ft 160 kts 310°
2026-05-05 13:51 50.06204 14.34074 2221 ft 163 kts 308°
2026-05-05 13:51 50.06882 14.32657 2062 ft 163 kts 307°
2026-05-05 13:52 50.07556 14.31241 1808 ft 162 kts 311°
2026-05-05 13:52 50.08234 14.29837 1589 ft 164 kts 310°
2026-05-05 13:52 50.08918 14.28416 1347 ft 163 kts 311°
2026-05-05 13:52 50.09580 14.27059 1212 ft 149 kts 310°
2026-05-05 13:53 50.10118 14.25949 1189 ft 95 kts 305°
2026-05-05 13:53 50.10333 14.25670 1184 ft 26 kts 347°
2026-05-05 13:53 50.10443 14.25667 1182 ft 14 kts
2026-05-05 13:53 50.10490 14.25775 1176 ft 13 kts 83°
2026-05-05 13:54 50.10507 14.25919 1173 ft 6 kts 78°
2026-05-05 13:54 50.10509 14.25933 1173 ft 6 kts 78°
2026-05-05 13:54 50.10526 14.26061 1172 ft 15 kts 79°
2026-05-05 13:54 50.10534 14.26217 1173 ft 14 kts 98°
2026-05-05 13:55 50.10489 14.26349 1169 ft 14 kts 125°
2026-05-05 13:55 50.10446 14.26447 1169 ft 9 kts 124°
2026-05-05 13:55 50.10413 14.26522 1170 ft 7 kts 124°
2026-05-05 13:55 50.10405 14.26542 1171 ft 1 kts 115°
2026-05-05 13:56 50.10411 14.26556 1171 ft 2 kts 42°
2026-05-05 13:56 50.10426 14.26573 1171 ft 3 kts 35°
2026-05-05 13:56 50.10435 14.26582 1172 ft 0 kts 34°